Location: ???????
(55.4362°N, 38.1183°E)
Time: 06:50:28
(UTC+00:00)

MINOTAUR 4 R/B - Visible Passes

Search period start: 26 October 2021 00:00
Search period end: 05 November 2021 00:00
Orbit: 473 x 480 km, 98.0° (Epoch: 26 October)

Date Brightness Start Highest point End Pass type
(mag) Time Alt. Az. Time Alt. Az. Time Alt. Az.
26 Oct 7.1 15:21:53 10° NNW 15:23:20 12° NW 15:24:46 10° WNW visible
27 Oct 6.7 14:54:16 10° NNW 14:56:53 19° WNW 14:59:30 10° WSW visible
30 Oct 6.9 15:07:33 10° NNW 15:09:46 16° NW 15:11:59 10° W visible
31 Oct 6.3 14:40:15 10° N 14:43:16 25° WNW 14:46:15 10° WSW visible
02 Nov 7.0 15:20:57 10° NNW 15:22:36 13° NW 15:24:15 10° W visible
03 Nov 6.6 14:53:24 10° N 14:56:07 21° WNW 14:58:49 10° WSW visible
04 Nov 5.7 14:26:15 10° N 14:29:32 34° WNW 14:32:48 10° SW visible
